This is the latest recevied weather packets stored in our database for station/object 9W2TBJ-4. If no packets are shown the sender has not sent any weather packets the latest 10 day(s).
| Time | Temp. | Humidity | Pressure | Rain* | Wind** | Luminosity | Snow |
|---|---|---|---|---|---|---|---|
| 1777823951 | 30.56° C | 64% | 1011.5 hPa | - | - | - | - |
| 1777822751 | 30.56° C | 66% | 1011.6 hPa | - | - | - | - |
| 1777821551 | 31.11° C | 64% | 1011.5 hPa | - | - | - | - |
| 1777820354 | 31.11° C | 65% | 1011.4 hPa | - | - | - | - |
| 1777819150 | 31.11° C | 63% | 1011.3 hPa | - | - | - | - |
| 1777817947 | 30.56° C | 64% | 1011 hPa | - | - | - | - |
| 1777816747 | 31.11° C | 65% | 1010.9 hPa | - | - | - | - |
| 1777815548 | 31.11° C | 63% | 1010.6 hPa | - | - | - | - |
| 1777814347 | 31.11° C | 63% | 1010.6 hPa | - | - | - | - |
| 1777813147 | 31.11° C | 64% | 1010.4 hPa | - | - | - | - |
| 1777811947 | 31.11° C | 65% | 1010.4 hPa | - | - | - | - |
| 1777810750 | 31.11° C | 64% | 1010.5 hPa | - | - | - | - |
| 1777809546 | 31.67° C | 63% | 1010.4 hPa | - | - | - | - |
| 1777808346 | 31.67° C | 62% | 1010.1 hPa | - | - | - | - |
| 1777807146 | 31.11° C | 63% | 1010 hPa | - | - | - | - |
| 1777805946 | 31.11° C | 64% | 1009.6 hPa | - | - | - | - |
| 1777804746 | 31.67° C | 63% | 1009 hPa | - | - | - | - |
| 1777803546 | 32.22° C | 62% | 1008.7 hPa | - | - | - | - |
| 1777803171 | 31.67° C | 62% | 1008.7 hPa | - | - | - | - |
| 1777801971 | 31.67° C | 62% | 1008.9 hPa | - | - | - | - |
| 1777800771 | 31.67° C | 63% | 1009.1 hPa | - | - | - | - |
| 1777799571 | 31.67° C | 63% | 1009.1 hPa | - | - | - | - |
| 1777798371 | 31.67° C | 63% | 1008.7 hPa | - | - | - | - |
| 1777797170 | 31.67° C | 62% | 1009 hPa | - | - | - | - |
| 1777795971 | 31.67° C | 63% | 1009.1 hPa | - | - | - | - |
* Rain since midnight (hover to see other rain measurements)
** Current wind speed in m/s (hover to see current wind gust speed)